• In France
  • List of Countries
  • For 7 days
  • Water Temperature
  • Satellite Maps
  • Weather Map
  • Weather Widgets
  • user-avatar
    Login

    Hourly Weather Ibagué

    Today, 20 August, Monday

    Time Temperature Precipitation Wind Pressure Humidity
    00:00 +21°C° 0 mm 1 mps 650 mmHg 47%
    01:00 +20°C° 0 mm 1 mps 650 mmHg 49%
    02:00 +20°C° 0 mm 1 mps 650 mmHg 51%
    03:00 +20°C° 0 mm 1 mps 650 mmHg 53%
    04:00 +19°C° 0 mm 1 mps 650 mmHg 54%
    05:00 +20°C° 0 mm 1 mps 650 mmHg 54%
    06:00 +21°C° 0 mm 1 mps 650 mmHg 53%
    07:00 +21°C° 0 mm 1 mps 651 mmHg 52%
    08:00 +24°C° 0 mm 2 mps 651 mmHg 46%
    09:00 +26°C° 0 mm 2 mps 652 mmHg 40%
    10:00 +29°C° 0 mm 3 mps 652 mmHg 33%
    11:00 +30°C° 0 mm 3 mps 652 mmHg 31%
    12:00 +31°C° 0 mm 3 mps 651 mmHg 29%
    13:00 +33°C° 0 mm 3 mps 651 mmHg 26%
    14:00 +33°C° 0 mm 3 mps 650 mmHg 27%
    15:00 +33°C° 0 mm 3 mps 650 mmHg 27%
    16:00 +31°C° 0 mm 3 mps 649 mmHg 27%
    17:00 +29°C° 0 mm 3 mps 649 mmHg 33%
    18:00 +26°C° 0 mm 2 mps 649 mmHg 38%
    19:00 +23°C° 0 mm 2 mps 649 mmHg 44%
    20:00 +23°C° 0.2 mm 2 mps 650 mmHg 45%
    21:00 +21°C° 0.2 mm 2 mps 650 mmHg 45%
    22:00 +21°C° 0.2 mm 1 mps 651 mmHg 46%
    23:00 +21°C° 0 mm 1 mps 650 mmHg 47%

    Tomorrow, 21 August, Tuesday

    Time Temperature Precipitation Wind Pressure Humidity
    00:00 +21°C° 0 mm 1 mps 650 mmHg 49%
    01:00 +20°C° 0 mm 1 mps 650 mmHg 50%
    02:00 +20°C° 0 mm 1 mps 650 mmHg 52%
    03:00 +20°C° 0 mm 1 mps 650 mmHg 53%
    04:00 +20°C° 0 mm 1 mps 649 mmHg 54%
    05:00 +20°C° 0 mm 1 mps 650 mmHg 54%
    06:00 +21°C° 0 mm 1 mps 650 mmHg 54%
    07:00 +21°C° 0 mm 1 mps 651 mmHg 54%
    08:00 +24°C° 0 mm 2 mps 651 mmHg 49%
    09:00 +26°C° 0 mm 2 mps 652 mmHg 44%
    10:00 +28°C° 0 mm 3 mps 652 mmHg 39%
    11:00 +29°C° 0 mm 3 mps 652 mmHg 36%
    12:00 +30°C° 0 mm 3 mps 651 mmHg 34%
    13:00 +31°C° 0 mm 3 mps 651 mmHg 31%
    14:00 +31°C° 0 mm 3 mps 650 mmHg 32%
    15:00 +31°C° 0 mm 3 mps 650 mmHg 32%
    16:00 +31°C° 0 mm 3 mps 649 mmHg 32%
    17:00 +28°C° 0.1 mm 3 mps 649 mmHg 37%
    18:00 +26°C° 0.1 mm 2 mps 649 mmHg 43%
    19:00 +23°C° 0.1 mm 2 mps 649 mmHg 49%
    20:00 +23°C° 0.2 mm 2 mps 650 mmHg 49%
    21:00 +21°C° 0.2 mm 2 mps 650 mmHg 49%
    22:00 +21°C° 0.2 mm 1 mps 651 mmHg 49%
    23:00 +21°C° 0 mm 1 mps 651 mmHg 51%

    Day after tomorrow, 22 August, Wednesday

    Time Temperature Precipitation Wind Pressure Humidity
    00:00 +21°C° 0 mm 1 mps 650 mmHg 52%
    01:00 +21°C° 0 mm 1 mps 650 mmHg 53%
    02:00 +20°C° 0 mm 1 mps 650 mmHg 55%
    03:00 +20°C° 0 mm 1 mps 649 mmHg 56%
    04:00 +20°C° 0 mm 1 mps 649 mmHg 58%
    05:00 +20°C° 0 mm 1 mps 650 mmHg 57%
    06:00 +21°C° 0 mm 1 mps 650 mmHg 56%
    07:00 +22°C° 0 mm 1 mps 650 mmHg 56%
    08:00 +24°C° 0 mm 2 mps 651 mmHg 50%
    09:00 +26°C° 0 mm 3 mps 652 mmHg 44%
    10:00 +28°C° 0 mm 4 mps 652 mmHg 38%
    11:00 +30°C° 0 mm 3 mps 652 mmHg 35%
    12:00 +31°C° 0 mm 3 mps 651 mmHg 31%
    13:00 +33°C° 0 mm 3 mps 651 mmHg 28%
    14:00 +33°C° 0 mm 3 mps 650 mmHg 28%
    15:00 +31°C° 0 mm 3 mps 650 mmHg 28%
    16:00 +31°C° 0 mm 3 mps 649 mmHg 28%
    17:00 +29°C° 0.1 mm 2 mps 649 mmHg 34%
    18:00 +26°C° 0.1 mm 2 mps 649 mmHg 40%
    19:00 +23°C° 0.1 mm 2 mps 649 mmHg 46%
    20:00 +23°C° 0.1 mm 2 mps 649 mmHg 45%
    21:00 +21°C° 0.1 mm 2 mps 650 mmHg 44%
    22:00 +21°C° 0.1 mm 1 mps 650 mmHg 43%
    23:00 +21°C° 0 mm 1 mps 650 mmHg 43%

    23 August, Thursday

    Time Temperature Precipitation Wind Pressure Humidity
    00:00 +21°C° 0 mm 1 mps 650 mmHg 43%
    01:00 +20°C° 0 mm 1 mps 650 mmHg 42%
    02:00 +20°C° 0 mm 1 mps 649 mmHg 44%
    03:00 +20°C° 0 mm 1 mps 649 mmHg 45%
    04:00 +20°C° 0 mm 1 mps 649 mmHg 46%
    05:00 +20°C° 0 mm 1 mps 649 mmHg 47%
    06:00 +21°C° 0 mm 1 mps 650 mmHg 48%
    07:00 +21°C° 0 mm 1 mps 650 mmHg 49%
    08:00 +23°C° 0 mm 1 mps 651 mmHg 47%
    09:00 +25°C° 0 mm 2 mps 652 mmHg 45%
    10:00 +26°C° 0 mm 2 mps 652 mmHg 43%
    11:00 +28°C° 0 mm 3 mps 652 mmHg 39%
    12:00 +29°C° 0 mm 3 mps 651 mmHg 35%
    13:00 +31°C° 0 mm 3 mps 651 mmHg 32%
    14:00 +31°C° 0 mm 3 mps 650 mmHg 31%
    15:00 +31°C° 0 mm 2 mps 650 mmHg 31%
    16:00 +30°C° 0 mm 2 mps 649 mmHg 31%
    17:00 +28°C° 0.1 mm 2 mps 649 mmHg 38%
    18:00 +25°C° 0.1 mm 2 mps 649 mmHg 45%
    19:00 +23°C° 0.1 mm 2 mps 649 mmHg 51%
    20:00 +22°C° 0.3 mm 1 mps 649 mmHg 52%
    21:00 +22°C° 0.3 mm 1 mps 650 mmHg 52%
    22:00 +21°C° 0.3 mm 1 mps 650 mmHg 52%
    23:00 +21°C° 0.1 mm 1 mps 650 mmHg 52%

    24 August, Friday

    Time Temperature Precipitation Wind Pressure Humidity
    00:00 +20°C° 0.1 mm 1 mps 650 mmHg 51%
    01:00 +20°C° 0.1 mm 1 mps 649 mmHg 51%
    02:00 +20°C° 0 mm 1 mps 649 mmHg 51%
    03:00 +20°C° 0 mm 1 mps 649 mmHg 51%
    04:00 +19°C° 0 mm 1 mps 649 mmHg 51%
    05:00 +20°C° 0 mm 1 mps 649 mmHg 51%
    06:00 +20°C° 0 mm 1 mps 650 mmHg 51%
    07:00 +21°C° 0 mm 1 mps 650 mmHg 50%
    08:00 +23°C° 0 mm 1 mps 650 mmHg 47%
    09:00 +25°C° 0 mm 1 mps 651 mmHg 44%
    10:00 +26°C° 0 mm 2 mps 651 mmHg 40%
    11:00 +27°C° 0 mm 2 mps 651 mmHg 39%
    12:00 +28°C° 0 mm 2 mps 650 mmHg 37%
    13:00 +30°C° 0 mm 3 mps 650 mmHg 35%
    14:00 +29°C° 0 mm 2 mps 650 mmHg 35%
    15:00 +29°C° 0 mm 2 mps 649 mmHg 36%
    16:00 +29°C° 0 mm 2 mps 649 mmHg 36%
    17:00 +27°C° 0.2 mm 2 mps 649 mmHg 42%
    18:00 +25°C° 0.2 mm 2 mps 649 mmHg 47%
    19:00 +23°C° 0.2 mm 1 mps 649 mmHg 53%
    20:00 +22°C° 0.2 mm 1 mps 650 mmHg 53%
    21:00 +22°C° 0.2 mm 1 mps 650 mmHg 53%
    22:00 +21°C° 0.2 mm 1 mps 651 mmHg 53%
    23:00 +21°C° 0.1 mm 1 mps 650 mmHg 54%

    25 August, Saturday

    Time Temperature Precipitation Wind Pressure Humidity
    00:00 +20°C° 0.1 mm 1 mps 650 mmHg 55%
    01:00 +20°C° 0.1 mm 1 mps 649 mmHg 56%
    02:00 +20°C° 0 mm 1 mps 649 mmHg 57%
    03:00 +20°C° 0 mm 1 mps 649 mmHg 58%
    04:00 +19°C° 0 mm 1 mps 649 mmHg 59%
    05:00 +20°C° 0 mm 1 mps 650 mmHg 59%
    06:00 +20°C° 0 mm 1 mps 650 mmHg 59%
    07:00 +21°C° 0 mm 1 mps 651 mmHg 59%
    08:00 +22°C° 0.2 mm 1 mps 651 mmHg 57%
    09:00 +23°C° 0.2 mm 2 mps 651 mmHg 56%
    10:00 +25°C° 0.2 mm 2 mps 652 mmHg 54%
    11:00 +27°C° 0 mm 2 mps 651 mmHg 47%
    12:00 +28°C° 0 mm 3 mps 651 mmHg 41%
    13:00 +30°C° 0 mm 3 mps 651 mmHg 35%
    14:00 +30°C° 0 mm 3 mps 650 mmHg 35%
    15:00 +30°C° 0 mm 3 mps 650 mmHg 36%
    16:00 +29°C° 0 mm 3 mps 649 mmHg 36%
    17:00 +27°C° 0.1 mm 2 mps 650 mmHg 42%
    18:00 +25°C° 0.1 mm 2 mps 650 mmHg 48%
    19:00 +23°C° 0.1 mm 2 mps 650 mmHg 54%
    20:00 +21°C° 0.1 mm 2 mps 650 mmHg 55%
    21:00 +22°C° 0.1 mm 1 mps 651 mmHg 56%
    22:00 +21°C° 0.1 mm 1 mps 651 mmHg 58%
    23:00 +21°C° 0 mm 1 mps 651 mmHg 60%
    Show more